Location: Ch�tillon
(48.8024°N, 2.2935°E)
Time: 07:23:04
(UTC+00:00)

Daily predictions for brighter satellites

Satellite Brightness Start Highest point End
(mag) Time Altitude Azimuth Time Altitude Azimuth Time Altitude Azimuth
COSMOS 2455 4.5 16:26:40 10° NW 16:32:17 41° WSW 16:37:51 10° S
YAOGAN 6 2.8 16:32:38 10° SSE 16:36:10 49° ENE 16:39:42 10° N
NOSS 2-1 (C) 4.3 16:33:22 10° NW 16:38:17 86° NE 16:45:15 10° SE
Cosmos 2333 4.5 16:32:41 10° SW 16:38:22 73° WNW 16:44:02 10° NNE
CZ-4C R/B 3.3 16:35:00 10° NNE 16:38:33 51° E 16:42:05 10° S
Cosmos 405 Rocket 2.9 16:36:58 10° N 16:40:47 50° ENE 16:44:38 10° SSE
ADEOS Rocket 3.6 16:35:54 10° NNE 16:43:34 77° ESE 16:51:22 10° S
NOSS 2-1 (D) 4.3 16:38:49 10° NW 16:43:46 88° SW 16:50:47 10° SE
Cosmos 372 Rocket 4.3 16:39:48 10° NNW 16:44:57 75° WSW 16:50:06 10° SSE
Cosmos 1943 Rocket 3.5 16:41:43 10° N 16:45:34 19° NE 16:49:24 10° E
Cosmos 405 2.9 16:42:55 10° S 16:46:24 72° E 16:49:54 10° NNE
YAOGAN 1 4.4 16:45:42 10° ENE 16:46:54 11° NE 16:48:07 10° NE
Cosmos 389 Rocket 4.2 16:45:12 10° SE 16:47:14 15° E 16:49:16 10° NE
Cosmos 44 4.5 16:44:20 10° NNW 16:48:47 28° NE 16:53:21 10° E
BREEZE-M DEB (TANK) 2.5 16:48:58 10° SW 16:51:12 37° SSE 16:53:03 11° E
H-2A R/B 2.6 16:47:04 10° SSE 16:51:25 90° E 16:55:39 10° NNW
Cosmos 2322 Rocket 4.0 16:47:01 10° W 16:51:38 25° NW 16:56:15 10° N
SL-16 R/B 3.8 16:50:57 10° SE 16:54:07 15° E 16:56:52 11° ENE
USA 215 4.0 16:48:07 10° ENE 16:54:08 37° SE 17:00:06 10° SSW
Cosmos 1743 Rocket 3.6 16:50:25 10° N 16:54:55 81° ENE 16:59:23 10° SSE
COSMO-SKYMED 1 4.1 16:52:30 10° NE 16:55:17 17° E 16:58:05 10° SE
ATLAS 5 CENTAUR R/B 4.4 16:50:52 10° WNW 16:55:59 33° WSW 17:01:48 10° S
NOAA 6 4.2 16:50:52 10° SSE 16:56:02 80° WSW 17:01:13 10° NNW
Cosmos 2298 Rocket 4.0 16:51:14 10° NNW 16:56:35 87° ENE 17:01:54 10° SSE
CZ-2C R/B 4.3 16:53:35 10° E 16:56:58 18° ENE 17:00:15 10° NNE
Cosmos 2150 Rocket 3.9 16:52:47 10° NNW 16:58:00 83° ENE 17:03:09 10° SSE
Okean-O 4.1 16:55:26 10° E 16:58:12 17° ENE 17:00:59 10° NNE
PAYLOAD B 4.4 16:53:21 10° SSE 16:58:57 83° WSW 17:04:33 10° NNW
Cosmos 1818 3.6 16:53:49 10° NW 16:59:20 83° NE 17:04:47 10° SE
Cosmos 1900 4.4 16:56:00 10° SSW 17:01:05 78° SE 17:06:17 10° NE
AQUARIUS 4.1 16:57:40 10° SSE 17:02:07 64° ENE 17:06:35 10° N
Sich 1 3.5 16:59:50 10° N 17:04:01 40° ENE 17:08:08 10° SE
Cosmos 1606 3.6 17:01:26 10° SSE 17:04:48 28° E 17:08:11 10° NNE
BREEZE-M TANK 4.5 16:58:16 10° W 17:05:07 37° SSW 17:08:22 10° SE
Cosmos 1842 Rocket 4.0 17:04:42 10° SSW 17:09:00 64° WNW 17:13:19 10° N
Okean O Rocket 1.5 17:04:46 10° SSE 17:09:06 76° ENE 17:13:30 10° NNW
Cosmos 2333 Rocket 2.8 17:03:36 10° SW 17:09:12 57° WNW 17:14:48 10° NNE
Helios 1A Rocket 4.3 17:07:57 10° ESE 17:10:45 18° ENE 17:13:34 10° NNE
ISS -3.0 17:08:16 10° SW 17:11:27 41° SSE 17:13:33 19° E
Radarsat Rocket 4.4 17:05:50 10° S 17:11:48 74° WSW 17:18:26 10° NNW
Nadezhda 1 Rocket 4.0 17:06:03 10° S 17:12:21 77° E 17:18:46 10° NNE
Cosmos 1125 Rocket 3.4 17:07:34 10° NNW 17:12:48 79° ENE 17:18:01 10° SSE
Cosmos 1356 3.9 17:10:34 10° N 17:13:47 36° ENE 17:16:58 10° SE
COSMOS 2428 3.1 17:08:58 10° SW 17:14:40 65° WNW 17:20:24 10° NNE
Cosmos 1805 Rocket 3.5 17:10:33 10° N 17:15:01 68° ENE 17:19:26 10° SSE
Cosmos 2208 Rocket 4.5 17:11:46 10° SW 17:17:00 63° WNW 17:22:21 10° NNE
Feng Yun 1-1 Rocket 4.5 17:11:30 10° SE 17:17:05 51° ENE 17:22:34 10° N
CZ-4B R/B 1.8 17:17:16 18° NE 17:19:05 34° E 17:21:56 10° SSE
Cosmos 2278 Rocket 2.6 17:14:19 10° NNW 17:19:58 68° WSW 17:25:35 10° SSE
Cosmos 1666 Rocket 4.0 17:17:01 10° N 17:21:10 39° ENE 17:25:18 10° SE
Cosmos 1151 Rocket 4.1 17:18:44 10° SE 17:22:07 23° E 17:23:24 20° ENE
Cosmos 2154 Rocket 4.2 17:17:57 10° NNW 17:24:18 79° W 17:30:38 10° S
CRYOSAT 2 4.3 17:20:00 10° N 17:24:55 83° E 17:29:49 10° S
Cosmos 1862 4.1 17:21:07 10° NNW 17:25:05 56° W 17:29:01 10° S
IRS-1C Rocket 4.3 17:21:29 10° SE 17:26:31 47° ENE 17:31:33 10° N
Cosmos 962 Rocket 4.4 17:20:37 10° N 17:26:56 70° ENE 17:33:09 10° SSE
Lacrosse 5 rocket 3.3 17:27:09 10° SE 17:28:08 11° SE 17:28:08 11° SE
USA 267 3.2 17:21:53 10° ESE 17:28:22 70° NNE 17:34:53 10° NW
Cosmos 482 Debris 3.8 17:30:39 10° WNW 17:31:55 29° NNW 17:31:55 29° NNW
ERS-2 2.3 17:29:45 16° NNE 17:32:27 48° ESE 17:36:00 10° S
Cosmos 2360 Rocket 4.2 17:28:17 10° W 17:32:37 22° NW 17:36:56 10° N
Cosmos 2341 Rocket 3.9 17:27:00 10° N 17:33:16 70° ENE 17:39:34 10° SSE
Meteor 1-25 Rocket 4.4 17:28:31 10° N 17:33:57 48° ENE 17:39:24 10° SSE
NOSS 0 Rocket 4.0 17:28:19 10° SSW 17:34:35 86° WNW 17:40:49 10° NNE
CZ-2D R/B 3.6 17:32:30 10° SE 17:36:04 39° ENE 17:39:41 10° N
CZ-4 R/B 2.0 17:38:23 27° E 17:39:24 32° ENE 17:42:58 10° N
Cosmos 2219 Rocket 3.4 17:35:03 10° WSW 17:40:19 39° NW 17:45:36 10° NNE
H-2A R/B 2.9 17:36:44 10° N 17:40:45 49° WNW 17:44:50 10° SW
TELKOM 3 4.0 17:39:03 10° SW 17:41:32 34° SSE 17:41:32 34° SSE
SMAP 4.1 17:38:28 10° S 17:42:58 47° W 17:47:29 10° NNW
BREEZE-M DEB (TANK) 2.8 17:41:08 10° SW 17:43:13 29° SSE 17:43:13 29° SSE
SKYMED 2 3.8 17:40:45 18° NNE 17:43:46 46° E 17:47:57 10° S
CZ-4B R/B 4.1 17:39:02 10° S 17:44:13 50° W 17:49:23 10° NNW
USA 81 4.1 17:39:45 10° N 17:44:58 57° E 17:50:09 10° SSE
CREW DRAGON DEMO-1 DEB 2.6 17:44:14 10° WNW 17:47:14 88° N 17:47:43 59° ESE
Cosmos 2285 Rocket 4.0 17:41:50 10° NNW 17:48:11 59° ENE 17:54:27 10° SE
Cosmos 2237 Rocket 2.2 17:43:54 10° SSW 17:49:32 83° WNW 17:54:26 14° NNE
NOAA 11 4.5 17:45:33 10° S 17:50:57 70° WSW 17:56:24 10° NNW
Cosmos 1939 Rocket 2.6 17:47:51 10° SSE 17:51:42 83° E 17:55:38 10° NNW
Cosmos 1633 Rocket 2.9 17:47:35 10° N 17:51:58 65° ENE 17:56:18 10° SSE
H-2A R/B 2.5 17:52:26 24° ESE 17:54:56 37° ENE 17:59:41 10° N
Cosmos 864 Rocket 4.4 17:51:10 10° N 17:57:28 64° ENE 18:03:41 10° SSE
SL-8 Rocket 3.9 17:51:13 10° N 17:57:28 80° E 18:03:44 10° SSE
Cosmos 2369 Rocket 2.8 17:56:21 10° NNW 18:01:35 35° NE 18:02:09 34° ENE
CSL-04 Rocket 4.0 18:01:44 35° E 18:02:45 39° ENE 18:07:41 10° N
USA 281 3.1 17:56:20 10° SE 18:02:52 77° ENE 18:09:28 10° NNW
MOS 1 Rocket 4.0 18:03:47 36° ENE 18:05:06 41° E 18:10:13 10° SSE
Cosmos 2181 Rocket 3.9 17:59:06 10° S 18:05:31 75° E 18:11:54 10° NNE
Cosmos 1959 Rocket 4.4 18:00:09 10° N 18:06:33 77° E 18:12:55 10° SSE
Cosmos 1980 4.2 18:02:12 10° SW 18:07:48 59° WNW 18:12:26 15° NNE
Cosmos 1821 Rocket 4.4 18:05:18 10° N 18:11:04 39° ENE 18:11:29 38° E
Cosmos 1241 Rocket 4.5 18:06:50 10° NW 18:13:29 73° NE 18:17:23 26° SE
Cosmos 389 Rocket 3.8 18:18:24 10° SW 18:21:37 37° WNW 18:23:14 23° NNW
YAOGAN 1 2.4 18:21:23 56° SE 18:22:14 77° ENE 18:26:35 10° N
SL-08 R/B 4.3 18:20:02 10° N 18:26:13 68° ENE 18:32:17 10° SSE
Cosmos 2297 3.9 18:21:32 10° NNW 18:27:12 72° WSW 18:32:52 10° SSE
Cosmos 1470 Rocket 3.3 18:23:01 10° N 18:27:23 85° ENE 18:27:23 85° ENE
Cosmos 1933 3.8 18:24:05 10° SSW 18:28:03 60° WNW 18:29:42 33° N
Cosmos 1943 Rocket 2.0 18:24:41 10° NNW 18:30:16 77° ENE 18:31:41 51° SE
Cosmos 44 3.5 18:25:18 10° NW 18:30:35 79° SW 18:32:40 39° SSE
Meteor 1-14 Rocket 4.2 18:24:41 10° N 18:30:38 75° ENE 18:36:37 10° SSE
COSMO-SKYMED 1 3.1 18:29:20 24° N 18:31:51 59° WNW 18:36:06 10° SSW
Okean-O 2.8 18:29:46 10° S 18:34:10 70° WSW 18:38:37 10° NNW
CZ-2C R/B 3.1 18:31:13 10° S 18:36:21 74° WSW 18:41:17 10° NNW
PSLV R/B 4.1 18:36:53 69° WSW 18:36:53 69° WSW 18:40:40 10° SSW
Cosmos 1867 3.5 18:31:25 10° SW 18:36:51 83° NW 18:37:58 58° NNE
SL-16 R/B 2.1 18:31:43 10° SSW 18:37:23 89° ESE 18:38:47 54° NNE
ARGOS 3.4 18:38:31 51° NNE 18:38:31 51° NNE 18:42:49 10° N
USA 215 3.2 18:35:12 44° NE 18:37:33 82° NNW 18:44:05 10° WSW
Meteor 1-26 Rocket 4.4 18:36:40 10° SSW 18:42:41 83° WNW 18:48:00 14° N
Cosmos 2218 Rocket 4.5 18:37:12 10° NNW 18:43:14 59° W 18:49:14 10° S
Helios 1A Rocket 3.7 18:43:48 28° SSW 18:45:35 50° W 18:49:31 10° NNW
ISS -1.5 18:44:53 10° W 18:46:31 26° W 18:46:31 26° W
CZ-4B R/B 4.2 18:50:24 14° NW 18:51:04 14° WNW 18:52:50 10° W
Cosmos 1151 Rocket 4.4 18:55:29 10° SW 18:59:29 37° WNW 19:00:18 34° NW
Lacrosse 5 rocket 3.8 19:03:14 10° SW 19:03:47 14° SW 19:03:47 14° SW
USA 267 3.9 19:09:07 33° S 19:11:36 48° SW 19:17:54 10° WNW
CZ-4 R/B 3.5 19:14:25 25° W 19:14:28 25° W 19:17:48 10° NW
H-2A R/B 3.4 19:33:04 32° SW 19:34:22 36° W 19:39:11 10° NNW
Cosmos 2237 Rocket 4.3 19:30:25 10° W 19:34:30 20° NW 19:36:16 18° NNW
Cosmos 2369 Rocket 3.5 19:40:20 10° NW 19:43:59 36° WNW 19:43:59 36° WNW
Cosmos 1943 Rocket 4.4 20:09:37 10° WNW 20:13:17 19° W 20:13:17 19° W
SL-16 R/B 4.5 20:17:59 10° W 20:20:43 20° WNW 20:20:43 20° WNW
